Weather History for Metropolis, IL

Change the Weather History Date:

Sunday, December 9, 2012

  Actual Average (KPAH) Record (KPAH)
Temperature  
Mean Temperature 58 °F 39 °F  
Max Temperature 65 °F 48 °F 66 °F (1952)
Min Temperature 49 °F 30 °F 7 °F (1995)
Degree Days  
Heating Degree Days 8 26  
Month to date heating degree days 223  
Since 1 July heating degree days 1000  
Cooling Degree Days 0 0  
Month to date cooling degree days 0  
Year to date cooling degree days 1542  
Growing Degree Days 8 (Base 50)    
Moisture  
Dew Point 57 °F    
Average Humidity 99    
Maximum Humidity 100    
Minimum Humidity 91    
Precipitation  
Precipitation 0.60 in 0.16 in 2.03 in (1961)
Month to date precipitation 1.41  
Year to date precipitation 45.90  
Snow  
Snow 0.00 in 0.00 in T in (2013)
Month to date snowfall 0.4  
Since 1 July snowfall 0.5  
Snow Depth -    
Sea Level Pressure  
Sea Level Pressure 29.82 in    
Wind  
Wind Speed 5 mph (South)    
Max Wind Speed 13 mph    
Max Gust Speed 24 mph    
Visibility 7 miles    
Events Thunderstorm    
T = Trace of Precipitation, MM = Missing Value Source: NWS Daily Summary

Daily Weather History Graph

Daily Weather History Graph

Search for Another Location

Airport:

Trip Planner

Search our weather history database for the weather conditions in past years. The results will help you decide how hot, cold, wet, or windy it might be!

Date:

Astronomy

Dec. 09, 2012 Rise Set
Actual Time 6:57 AM CST 4:37 PM CST
Civil Twilight 6:28 AM CST 5:06 PM CST
Nautical Twilight 5:55 AM CST 5:39 PM CST
Astronomical Twilight 5:24 AM CST 6:10 PM CST
Moon 2:34 AM CST (12/9) 1:40 PM CST (12/9)
Length of Visible Light 10h 38m
Length of Day
9h 40m
Waning Crescent, 18% of the Moon is Illuminated
Dec 9
Waning Crescent
Dec 13
New
Dec 19
First Quarter
Dec 28
Full
Jan 4
Last Quarter

Hourly Weather History & Observations

Time (CST) Temp. Dew Point Humidity Pressure Visibility Wind Dir Wind Speed Gust Speed Precip Events Conditions
12:15 AM 50.4 °F 49.8 °F 98% 29.92 in 5.0 mi East 4.6 mph - N/A   Overcast
12:35 AM 50.5 °F 50.0 °F 98% 29.92 in 5.0 mi ESE 4.6 mph - N/A   Overcast
12:55 AM 50.7 °F 50.2 °F 98% 29.91 in 5.0 mi East 3.5 mph - N/A   Overcast
1:15 AM 50.9 °F 50.5 °F 99% 29.91 in 5.0 mi East 3.5 mph - N/A   Overcast
1:35 AM 50.9 °F 50.9 °F 100% 29.91 in 4.0 mi Calm Calm - N/A   Overcast
1:55 AM 50.9 °F 50.9 °F 100% 29.90 in 4.0 mi East 3.5 mph - N/A Thunderstorm Overcast
2:15 AM 51.1 °F 51.1 °F 100% 29.89 in 4.0 mi East 4.6 mph - N/A   Overcast
2:35 AM 51.1 °F 51.1 °F 100% 29.89 in 4.0 mi ESE 4.6 mph - N/A Thunderstorm Overcast
2:55 AM 50.9 °F 50.9 °F 100% 29.87 in 3.0 mi East 6.9 mph - 0.03 in Thunderstorm Thunderstorm
3:15 AM 50.9 °F 50.9 °F 100% 29.87 in 3.0 mi ESE 5.8 mph - N/A Thunderstorm Overcast
3:35 AM 51.1 °F 51.1 °F 100% 29.83 in 2.5 mi East 5.8 mph - 0.01 in Thunderstorm Overcast
3:55 AM 51.3 °F 51.3 °F 100% 29.85 in 2.0 mi NNE 5.8 mph - 0.01 in   Overcast
4:15 AM 51.8 °F 51.8 °F 100% 29.85 in 2.5 mi ENE 3.5 mph - N/A   Overcast
4:35 AM 52.3 °F 52.3 °F 100% 29.84 in 3.0 mi NE 3.5 mph - N/A   Overcast
4:55 AM 52.7 °F 52.7 °F 100% 29.85 in 3.0 mi Calm Calm - N/A   Overcast
5:15 AM 52.9 °F 52.9 °F 100% 29.84 in 3.0 mi Calm Calm - N/A Thunderstorm Overcast
5:35 AM 52.9 °F 52.9 °F 100% 29.87 in 2.0 mi South 4.6 mph - 0.04 in Thunderstorm Thunderstorm
5:55 AM 52.9 °F 52.9 °F 100% 29.86 in 2.0 mi SE 4.6 mph - 0.08 in Thunderstorm Overcast
6:15 AM 52.9 °F 52.9 °F 100% 29.85 in 2.5 mi Calm Calm - 0.01 in Thunderstorm Overcast
6:35 AM 53.1 °F 53.1 °F 100% 29.84 in 2.0 mi Calm Calm - 0.01 in   Overcast
6:55 AM 52.9 °F 52.9 °F 100% 29.85 in 1.8 mi Calm Calm - 0.02 in   Overcast
7:15 AM 53.6 °F 53.6 °F 100% 29.86 in 1.8 mi SSE 3.5 mph - N/A   Overcast
7:35 AM 53.6 °F 53.6 °F 100% 29.85 in 2.0 mi Calm Calm - N/A   Overcast
8:35 AM 56.3 °F 56.3 °F 100% 29.85 in 10.0 mi Calm Calm - N/A   Scattered Clouds
8:55 AM 57.2 °F 57.2 °F 100% 29.84 in 10.0 mi SE 3.5 mph - N/A   Mostly Cloudy
9:15 AM 58.1 °F 58.1 °F 100% 29.85 in 10.0 mi Calm Calm - N/A   Mostly Cloudy
9:35 AM 59.0 °F 59.0 °F 100% 29.85 in 10.0 mi SSE 3.5 mph - N/A   Scattered Clouds
9:55 AM 60.8 °F 60.8 °F 100% 29.86 in 10.0 mi South 5.8 mph - N/A   Scattered Clouds
10:15 AM 61.9 °F 61.2 °F 97% 29.86 in 10.0 mi South 5.8 mph - N/A   Overcast
10:35 AM 62.8 °F 61.7 °F 96% 29.85 in 10.0 mi SSW 8.1 mph - N/A   Overcast
10:55 AM 62.6 °F 61.7 °F 97% 29.85 in 10.0 mi South 10.4 mph - N/A   Overcast
11:15 AM 62.6 °F 61.9 °F 97% 29.84 in 10.0 mi SSW 9.2 mph - N/A   Overcast
11:35 AM 61.9 °F 61.9 °F 100% 29.83 in 7.0 mi South 9.2 mph - 0.01 in   Overcast
11:55 AM 61.7 °F 61.7 °F 100% 29.83 in 10.0 mi South 12.7 mph 18.4 mph 0.03 in   Overcast
12:15 PM 61.7 °F 61.7 °F 100% 29.80 in 7.0 mi SSE 6.9 mph - 0.02 in   Overcast
12:35 PM 62.6 °F 62.6 °F 100% 29.79 in 10.0 mi South 8.1 mph - 0.03 in Thunderstorm Mostly Cloudy
12:55 PM 63.5 °F 63.5 °F 100% 29.78 in 10.0 mi South 8.1 mph - 0.03 in   Scattered Clouds
1:15 PM 64.9 °F 64.0 °F 97% 29.79 in 10.0 mi South 6.9 mph - N/A   Mostly Cloudy
1:35 PM 64.4 °F 63.0 °F 95% 29.78 in 10.0 mi South 9.2 mph - N/A   Overcast
1:55 PM 64.8 °F 62.8 °F 93% 29.76 in 10.0 mi South 8.1 mph - N/A Thunderstorm Overcast
2:15 PM 65.3 °F 62.6 °F 91% 29.75 in 10.0 mi South 8.1 mph - N/A   Mostly Cloudy
2:35 PM 65.1 °F 62.6 °F 92% 29.75 in 10.0 mi South 8.1 mph - N/A   Overcast
2:55 PM 64.0 °F 63.1 °F 97% 29.75 in 7.0 mi South 8.1 mph - N/A   Overcast
3:15 PM 63.5 °F 63.5 °F 100% 29.75 in 5.0 mi South 8.1 mph - N/A   Overcast
3:35 PM 63.5 °F 63.5 °F 100% 29.75 in 7.0 mi South 10.4 mph 20.7 mph N/A   Overcast
3:55 PM 63.7 °F 63.7 °F 100% 29.74 in 10.0 mi South 9.2 mph - N/A   Overcast
4:15 PM 63.9 °F 63.5 °F 99% 29.74 in 10.0 mi South 10.4 mph - N/A   Overcast
4:35 PM 64.0 °F 63.1 °F 97% 29.74 in 10.0 mi South 11.5 mph 16.1 mph N/A   Overcast
4:55 PM 63.7 °F 63.3 °F 99% 29.73 in 10.0 mi SSW 10.4 mph - N/A   Overcast
5:15 PM 63.9 °F 63.5 °F 99% 29.73 in 10.0 mi SSW 9.2 mph 17.3 mph N/A Thunderstorm Overcast
5:35 PM 63.5 °F 63.5 °F 100% 29.73 in 10.0 mi SSW 10.4 mph 16.1 mph N/A Thunderstorm Overcast
5:55 PM 64.4 °F 64.4 °F 100% 29.73 in 10.0 mi SSW 5.8 mph - N/A Thunderstorm Overcast
6:15 PM 60.6 °F 59.9 °F 97% 29.74 in 4.0 mi West 11.5 mph 24.2 mph 0.20 in Thunderstorm Thunderstorm
6:55 PM 60.8 °F 60.4 °F 99% 29.74 in 10.0 mi WSW 9.2 mph 17.3 mph 0.40 in Thunderstorm Thunderstorm
7:15 PM 60.1 °F 60.1 °F 100% 29.75 in 10.0 mi West 4.6 mph - N/A   Mostly Cloudy
7:35 PM 59.7 °F 59.7 °F 100% 29.76 in 10.0 mi West 6.9 mph - N/A   Overcast
7:55 PM 58.3 °F 58.3 °F 100% 29.76 in 10.0 mi NW 10.4 mph 18.4 mph N/A   Overcast
8:35 PM 53.8 °F 53.8 °F 100% 29.78 in 7.0 mi NNW 8.1 mph 16.1 mph N/A   Overcast
8:55 PM 53.2 °F 53.2 °F 100% 29.79 in 10.0 mi NNW 5.8 mph - N/A   Overcast
9:15 PM 53.1 °F 52.2 °F 97% 29.79 in 10.0 mi NNW 8.1 mph - N/A   Overcast
9:35 PM 52.5 °F 50.9 °F 94% 29.79 in 10.0 mi NW 5.8 mph - N/A   Overcast
10:15 PM 51.1 °F 50.0 °F 96% 29.80 in 10.0 mi NNW 11.5 mph 18.4 mph N/A   Overcast
10:35 PM 50.9 °F 50.2 °F 97% 29.81 in 10.0 mi NNW 10.4 mph - N/A   Overcast
10:55 PM 50.2 °F 49.6 °F 98% 29.82 in 7.0 mi NW 10.4 mph 18.4 mph N/A   Overcast
11:15 PM 49.5 °F 48.7 °F 97% 29.83 in 7.0 mi NW 12.7 mph 17.3 mph N/A   Overcast